UAL1035 KSJC-KSLC

Flight info

Callsign UAL1035
Flight time N/A
Altitude 33000
Route LOUPE1 MOGEE Q124 SLOWN/N0462F350 Q124 BVL YUTES2
Aircraft B738/M-SDE2E3FGHIRWXY/LB1

Departure

Time N/A
Airport Norman Y. Mineta San Jose International Airport (KSJC)

Arrival

Time 2026-05-08 02:57
Airport Salt Lake City International Airport (KSLC)
Time Latitude Longitude Altitude Speed Heading
2026-05-08 02:47 40.76931 -112.18101 11955 ft 327 kts 98°
2026-05-08 02:48 40.76273 -112.15264 11789 ft 322 kts 114°
2026-05-08 02:48 40.75351 -112.12575 11584 ft 322 kts 119°
2026-05-08 02:48 40.73958 -112.10317 11362 ft 314 kts 146°
2026-05-08 02:48 40.72085 -112.08983 11190 ft 300 kts 166°
2026-05-08 02:49 40.70756 -112.08611 11069 ft 291 kts 177°
2026-05-08 02:49 40.68762 -112.08358 10852 ft 286 kts 180°
2026-05-08 02:49 40.66172 -112.08106 10545 ft 275 kts 180°
2026-05-08 02:49 40.64289 -112.07916 10281 ft 268 kts 179°
2026-05-08 02:50 40.62459 -112.07718 10031 ft 260 kts 179°
2026-05-08 02:50 40.61253 -112.07583 9871 ft 255 kts 179°
2026-05-08 02:50 40.59512 -112.07385 9670 ft 246 kts 179°
2026-05-08 02:50 40.57864 -112.07196 9467 ft 236 kts 179°
2026-05-08 02:51 40.56284 -112.06734 9228 ft 234 kts 157°
2026-05-08 02:51 40.55026 -112.05409 9034 ft 234 kts 127°
2026-05-08 02:51 40.54340 -112.03492 8837 ft 233 kts 101°
2026-05-08 02:51 40.54309 -112.01396 8641 ft 230 kts 76°
2026-05-08 02:52 40.54907 -111.99477 8434 ft 225 kts 52°
2026-05-08 02:52 40.56009 -111.98067 8242 ft 221 kts 28°
2026-05-08 02:52 40.57432 -111.97351 8060 ft 220 kts
2026-05-08 02:52 40.58955 -111.97359 7816 ft 219 kts 350°
2026-05-08 02:53 40.60477 -111.97557 7536 ft 220 kts 351°
2026-05-08 02:53 40.61991 -111.97739 7247 ft 216 kts 351°
2026-05-08 02:53 40.63475 -111.97915 6970 ft 211 kts 351°
2026-05-08 02:53 40.64903 -111.98079 6686 ft 201 kts 351°
2026-05-08 02:54 40.66231 -111.98233 6444 ft 186 kts 351°
2026-05-08 02:54 40.67480 -111.98378 6262 ft 173 kts 351°
2026-05-08 02:54 40.68678 -111.98520 6024 ft 172 kts 350°
2026-05-08 02:54 40.69861 -111.98658 5784 ft 168 kts 351°
2026-05-08 02:55 40.71015 -111.98792 5557 ft 166 kts 353°
2026-05-08 02:55 40.73158 -111.99042 5104 ft 165 kts 355°
2026-05-08 02:55 40.74301 -111.99173 4902 ft 166 kts 354°
2026-05-08 02:56 40.75445 -111.99310 4674 ft 164 kts 354°
2026-05-08 02:56 40.76567 -111.99440 4461 ft 163 kts 355°
2026-05-08 02:56 40.77698 -111.99570 4253 ft 162 kts 355°
2026-05-08 02:56 40.78745 -111.99692 4232 ft 135 kts 355°
2026-05-08 02:57 40.79466 -111.99781 4229 ft 55 kts 355°
2026-05-08 02:57 40.79769 -111.99748 4230 ft 37 kts 28°
2026-05-08 02:57 40.79800 -111.99590 4230 ft 21 kts 173°
2026-05-08 02:57 40.79654 -111.99580 4230 ft 22 kts 176°
2026-05-08 02:58 40.79463 -111.99557 4230 ft 29 kts 175°
2026-05-08 02:58 40.79305 -111.99542 4229 ft 16 kts 176°
2026-05-08 02:58 40.79154 -111.99527 4230 ft 20 kts 174°
2026-05-08 02:58 40.79068 -111.99514 4231 ft 12 kts 173°
2026-05-08 02:59 40.79000 -111.99505 4231 ft 14 kts 174°
2026-05-08 02:59 40.78858 -111.99489 4231 ft 7 kts 174°
2026-05-08 03:00 40.78819 -111.99484 4231 ft 11 kts 174°
2026-05-08 03:00 40.78732 -111.99457 4231 ft 13 kts 137°
2026-05-08 03:00 40.78720 -111.99299 4230 ft 23 kts 88°
2026-05-08 03:01 40.78727 -111.99140 4230 ft 17 kts 85°
2026-05-08 03:01 40.78741 -111.98954 4230 ft 17 kts 84°
2026-05-08 03:01 40.78748 -111.98854 4230 ft 12 kts 84°
2026-05-08 03:01 40.78757 -111.98745 4230 ft 12 kts 84°
2026-05-08 03:02 40.78808 -111.98709 4230 ft 7 kts 355°
2026-05-08 03:02 40.78831 -111.98711 4230 ft 0 kts 355°